Weather observations for the past three days for
New Orleans, New Orleans Lakefront Airport
Imperial (Metric)
Date Time (cdt) Wind (mph) Vis. (mi.) Weather Sky Cond. Temperature (ºF) Relative Humidity Wind Chill (°F) Heat Index (°F) Pressure Precipitation (in)
Air Dwpt 6 hour altimeter (in) sea level (mb) 1 hr 3 hr 6 hr
Max. Min.
23 00:53 S 3 10.00 Fair CLR 82 75 89.1 82 79% 89 30.01 1015.6
22 23:53 S 5 10.00 Fair CLR 82.9 75.9 79% 91 30.03 1016.3
22 22:53 S 6 10.00 Fair CLR 82.9 75 77% 90 30.03 1016.3
22 21:53 S 6 10.00 Fair CLR 82.9 73.9 74% 89 30.02 1016.0
22 20:53 S 6 10.00 Fair CLR 84 73.9 72% 91 30 1015.3
22 19:53 S 10 10.00 Fair CLR 86 73 65% 93 30 1015.1
22 18:53 SE 9 10.00 Fair CLR 89.1 72 91 89.1 57% 96 29.99 1014.9
22 17:53 SE 9 10.00 Fair CLR 90 73.9 59% 99 29.99 1015.0
22 16:53 E 5 10.00 Fair CLR 91 73.9 57% 101 30 1015.1
22 15:53 SE 8 10.00 A Few Clouds FEW035 90 73.9 59% 99 30.01 1015.7
22 14:53 E 7 10.00 A Few Clouds FEW034 91 73.9 57% 101 30.03 1016.1
22 13:53 SE 10 10.00 Fair CLR 90 73 58% 98 30.05 1016.8
22 12:53 SE 8 10.00 Partly Cloudy SCT037 90 72 91 84 56% 97 30.06 1017.1
22 11:53 E 8 10.00 Fair CLR 89.1 70 53% 94 30.07 1017.5
22 10:53 E 8 10.00 Fair CLR 88 70 55% 93 30.08 1017.9
22 09:53 E 6 10.00 Fair CLR 87.1 71.1 59% 93 30.09 1018.1
22 08:53 NE 8 10.00 Fair CLR 84.9 73 68% 92 30.1 1018.5
22 07:53 NE 9 10.00 Fair CLR 84 73 70% 90 30.1 1018.5
22 06:53 NE 9 10.00 Fair CLR 84 73 84 81 70% 90 30.08 1017.9
22 05:53 NE 8 10.00 Fair CLR 82.9 72 70% 88 30.07 1017.6
22 04:53 NE 7 10.00 Fair CLR 82.9 72 70% 88 30.07 1017.4
22 03:53 NE 5 10.00 Fair CLR 82.9 71.1 67% 88 30.06 1017.2
22 02:53 Calm 10.00 Fair CLR 82 71.1 69% 86 30.07 1017.4
22 01:53 Calm 10.00 Fair CLR 82 73 74% 87 30.08 1017.9
22 00:53 SE 3 10.00 Fair CLR 82 73 89.1 82 74% 87 30.09 1018.3
21 23:53 SE 3 10.00 Fair CLR 82 72 72% 87 30.1 1018.7
21 22:53 SE 3 10.00 Fair CLR 82.9 72 70% 88 30.1 1018.6
21 21:53 SE 6 10.00 Fair CLR 82.9 71.1 67% 88 30.09 1018.1
21 20:53 SE 7 10.00 Fair CLR 84.9 72 65% 91 30.07 1017.7
21 19:53 SE 7 10.00 Fair CLR 87.1 70 57% 92 30.07 1017.5
21 18:53 E 7 10.00 Fair CLR 89.1 68 91 89.1 50% 93 30.06 1017.3
21 17:53 SE 9 10.00 Fair CLR 90 66.9 47% 93 30.06 1017.3
21 16:53 E 12 10.00 Fair CLR 90 69.1 50% 95 30.07 1017.7
21 15:53 SE 13 10.00 Fair CLR 90 70 52% 95 30.09 1018.3
21 14:53 E 15 10.00 Partly Cloudy FEW032 SCT050 SCT065 90 72 56% 97 30.11 1018.8
21 13:53 E 17 10.00 A Few Clouds FEW029 90 73.9 59% 99 30.12 1019.3
21 12:53 E 12 G 21 10.00 A Few Clouds FEW028 FEW041 90 75 90 82 62% 100 30.14 1019.8
21 11:53 E 13 10.00 A Few Clouds FEW026 89.1 77 68% 102 30.14 1019.9
21 10:53 E 12 10.00 Fair CLR 88 75.9 68% 99 30.14 1020.0
21 09:53 E 16 10.00 Fair CLR 87.1 75 67% 97 30.14 1020.1
21 08:53 E 14 10.00 Fair CLR 86 75.9 72% 96 30.14 1019.9
21 07:53 E 13 10.00 Fair CLR 82.9 77 82% 92 30.14 1019.8
21 06:53 E 13 10.00 Fair CLR 82 77 82.9 82 85% 90 30.13 1019.5
21 05:53 E 9 10.00 Fair CLR 82 77 85% 90 30.12 1019.4
21 04:53 E 7 10.00 Fair CLR 82 77 85% 90 30.11 1019.0
21 03:53 E 7 10.00 A Few Clouds FEW019 82.9 77 82% 92 30.1 1018.7
21 02:53 E 9 10.00 Fair CLR 82.9 77 82% 92 30.11 1018.9
21 01:53 E 10 10.00 Fair CLR 82.9 77 82% 92 30.12 1019.3
21 00:53 E 9 10.00 Mostly Cloudy FEW018 BKN065 82.9 77 87.1 82.9 82% 92 30.13 1019.6
20 23:53 E 10 10.00 Partly Cloudy SCT060 84 75.9 77% 93 30.14 1020.0
20 22:53 E 12 10.00 A Few Clouds FEW055 84 75.9 77% 93 30.14 1020.0
20 21:53 E 8 10.00 Fair CLR 82.9 75 77% 90 30.12 1019.4
20 20:53 E 12 10.00 Fair CLR 84 75 74% 92 30.12 1019.1
20 19:53 E 13 10.00 Fair CLR 84.9 73.9 70% 92 30.11 1018.9
20 18:53 E 14 10.00 Fair CLR 86 73 88 86 65% 93 30.1 1018.7
20 17:53 E 15 10.00 A Few Clouds FEW090 87.1 73 63% 95 30.1 1018.7
20 16:53 E 13 10.00 Overcast OVC090 87.1 72 61% 94 30.12 1019.2
20 15:53 E 21 10.00 Overcast and Breezy OVC090 87.1 68 53% 91 30.13 1019.6
20 14:53 E 18 G 29 10.00 Mostly Cloudy BKN090 87.1 72 61% 94 30.13 1019.6
20 13:53 E 21 10.00 Mostly Cloudy and Breezy FEW022 BKN100 86 75 70% 95 30.14 1020.0
20 12:53 E 18 G 30 10.00 Mostly Cloudy BKN023 BKN038 86 75 86 82 70% 95 30.15 1020.5
20 11:53 E 10 10.00 Overcast BKN023 OVC030 82.9 73.9 74% 89 30.16 1020.5
20 10:53 E 22 G 32 10.00 Overcast and Breezy FEW020 BKN029 OVC047 84.9 75 72% 93 30.15 1020.1
20 09:53 E 17 10.00 Overcast SCT019 BKN024 OVC034 84.9 75.9 75% 94 30.13 1019.7
20 08:53 NE 16 10.00 Overcast OVC023 82 75.9 82% 89 30.12 1019.1
20 07:53 E 12 10.00 A Few Clouds FEW070 84 77 80% 94 30.1 1018.5
20 06:53 E 15 10.00 Partly Cloudy FEW033 SCT050 SCT070 82 75.9 84 81 82% 89 30.08 1017.9
20 05:53 E 12 10.00 Partly Cloudy SCT018 SCT028 81 75 82% 87 30.07 1017.4
20 04:53 NE 15 10.00 A Few Clouds FEW030 81 75.9 85% 87 30.05 1016.9
20 03:53 NE 16 10.00 Partly Cloudy FEW018 SCT034 SCT070 82 77 85% 90 30.05 1016.8
20 02:53 E 13 10.00 A Few Clouds FEW040 82.9 75 77% 90 30.05 1016.9
20 01:53 E 16 10.00 Fair CLR 82.9 73.9 74% 89 30.06 1017.1
Date Time (cdt) Wind (mph) Vis. (mi.) Weather Sky Cond. Air Dwpt Max. Min. Relative Humidity Wind Chill (°F) Heat Index (°F) altimeter (in) sea level (mb) 1 hr 3 hr 6 hr
6 hour
Temperature (ºF) Pressure Precipitation (in)